INTEGRAL

Last updated on June 18, 2021, 1:52 p.m. UTC

1 27540U 02048A   21167.94377376  .00000652  00000-0  00000+0 0  9997
2 27540  64.2232  84.6448 8990414 299.3001   1.8961  0.37576698 19761
UTC
Height (km)
Latitude
Longitude
Inclination
Orbital Period
UTC large
Height (km)
Speed (km/s)
/
Latitude / Longitude
Inclination (degrees)
Orbital Period (minutes)
Azimuth
Elevation
Range (km)
Doppler Factor
iOS Compass Heading
iOS Angle

Next 30 passes for location: Hong Kong

Rise time Rise Azimuth (degrees) Set time Set Azimuth (degrees) Duration Max altitude (degrees)

No matching passes for this satellites